Regional Weather Roundup
Issued by NWS

Home | Current Version | Previous Version | Text Only | Print | Product List | Glossary On
Versions: 1 2 3 4 5 6 7 8 9 10 11 12 13 14 15 16 17 18 19 20 21 22 23 24 25 26 27 28 29 30 31 32 33 34 35 36 37 38 39 40 41 42 43 44 45 46 47 48 49 50
000
ASUS43 KDMX 300407
RWRIA

WEATHER ROUNDUP FOR IOWA
NATIONAL WEATHER SERVICE DES MOINES IA
1100 PM CDT SUN MAR 29 2015

NOTE: "FAIR" INDICATES FEW OR NO CLOUDS BELOW 12,000 FEET WITH NO
SIGNIFICANT WEATHER AND/OR OBSTRUCTIONS TO VISIBILITY.

* - THESE STATIONS ARE NOT NWS STATIONS...THUS NOT UNDER NWS
QUALITY CONTROL.  THEY ALSO DO NOT REPORT WEATHER SUCH
AS PRECIPITATION OR FOG.

IAZ001>003-012>014-020>022-031>034-043>046-300500-
   NORTHWEST IOWA

CITY           SKY/WX    TMP DP  RH WIND       PRES   REMARKS
CARROLL *      CLEAR     37  23  56 W9        30.10R WCI  31
CHEROKEE *     CLEAR     36  25  64 CALM      30.08S
DENISON *      CLEAR     39  23  52 CALM      30.09S
LE MARS *      CLEAR     32  23  69 S3        30.08F
ORANGE CITY *  CLEAR     43  21  42 CALM      30.07S
SHELDON *      CLEAR     34  21  60 CALM      30.05F
SIOUX CITY     CLEAR     40  21  46 CALM      30.09F
SPENCER        CLEAR     33  24  69 W7        30.06F WCI  27
STORM LAKE *   CLEAR     45  21  39 NW6       30.09S
$$

IAZ055>058-069>071-079>083-090>094-300500-
   SOUTHWEST IOWA

CITY           SKY/WX    TMP DP  RH WIND       PRES   REMARKS
ATLANTIC *     CLEAR     39  25  56 CALM      30.12R
AUDUBON *      CLEAR     32  25  74 CALM      30.12R
CLARINDA *     CLEAR     36  28  75 CALM      30.15R
COUNCIL BLFS * CLEAR     50  23  34 W6        30.13R
CRESTON *      CLEAR     43  25  49 NW6       30.12R
HARLAN  *      CLEAR     37  23  56 CALM      30.15R
LAMONI         CLEAR     42  29  59 W8        30.10S
RED OAK *      CLEAR     37  28  70 CALM      30.13S
SHENANDOAH *   CLEAR     37  27  65 S5        30.14S WCI  34
$$

IAZ047>049-059>061-072>074-084-300500-
   CENTRAL IOWA

CITY           SKY/WX    TMP DP  RH WIND       PRES   REMARKS
AMES           CLEAR     45  23  42 NW8       30.08R
ANKENY *       CLEAR     45  27  49 W9        30.09R
CHARITON *     CLEAR     45  27  49 W9        30.09S
DES MOINES     CLEAR     48  22  35 NW8       30.09R
GRINNELL*      CLEAR     39  27  60 NW5       30.07R
KNOXVILLE *    CLEAR     46  23  39 W6        30.07R
MARSHALLTOWN   CLEAR     36  27  69 W7        30.05R WCI  30
PELLA *        CLEAR     46  28  49 NW8       30.09R
PERRY *          N/A     37  25  60 NW7       30.09S WCI  32
$$

IAZ004>006-015-016-023>025-035-036-300500-
   NORTH CENTRAL IOWA

CITY           SKY/WX    TMP DP  RH WIND       PRES   REMARKS
ALGONA *       CLEAR     39  27  60 W8        30.06S WCI  34
CLARION *      CLEAR     36  28  75 NW7       30.06R WCI  30
ESTHERVILLE    CLEAR     33  24  69 W7        30.04S WCI  27
FORT DODGE *   CLEAR     41  25  52 CALM      30.08S
MASON CITY     CLEAR     37  27  67 W10       30.04R WCI  30
FOREST CITY *  CLEAR     36  28  75 W6        30.03S WCI  31
IOWA FALLS *     N/A     36  28  75 W9        30.06R WCI  29
$$

IAZ007>011-017>019-026>030-037>042-050>054-066-300500-
   NORTHEAST IOWA

CITY           SKY/WX    TMP DP  RH WIND       PRES   REMARKS
CEDAR RAPIDS   CLEAR     37  29  72 NW9       30.02R WCI  30
CHARLES CITY * CLEAR     39  32  75 W9        30.02R WCI  33
CLINTON *      CLEAR     39  30  70 NW10      30.01S WCI  32
DECORAH *      CLEAR     41  30  65 VRB5G12   29.97R
DUBUQUE        CLEAR     43  28  55 NW15G24   29.97R
MONTICELLO *   CLEAR     43  32  65 NW12      30.00R
OELWEIN *      CLEAR     37  32  81 NW10      30.01R WCI  30
WATERLOO       CLEAR     42  31  64 NW7       30.02R
$$

IAZ064-065-067-068-078-300500-
   EAST CENTRAL IOWA

CITY           SKY/WX    TMP DP  RH WIND       PRES   REMARKS
DAVENPORT      CLEAR     38  29  70 W9        30.01R WCI  31
IOWA CITY      CLEAR     45  29  53 NW7       30.05R
MT. PLEASANT * CLEAR     46  27  46 W8        30.05R
MUSCATINE *    CLEAR     43  28  56 W9        30.04R
QUAD CITIES    CLEAR     43  28  55 W8        30.01R
$$

IAZ062-063-075>077-085>089-095>099-300500-
   SOUTHEAST IOWA

CITY           SKY/WX    TMP DP  RH WIND       PRES   REMARKS
BURLINGTON     CLEAR     48  29  47 NW6       30.04R
FAIRFIELD *    CLEAR     43  27  52 W8        30.06R
FORT MADISON * CLEAR     46  30  53 W8        30.06R
KEOKUK *       CLEAR     50  30  46 W7        30.05R
OSKALOOSA *      N/A     36  27  69 W10       30.07R WCI  28
CENTERVILLE *  CLEAR     41  32  70 W10       30.10R
OTTUMWA        CLEAR     44  24  45 W8        30.07R
WASHINGTON *   CLEAR     43  28  56 NW8       30.05R
$$

ABBREVIATIONS USED IN REMARKS
   TC - TEMPERATURES IN CELSIUS
  WCI - WIND CHILL INDEX
   HX - HEAT INDEX
  VSB - VISIBILITY
$$



USA.gov is the U.S. government's official web portal to all federal, state and local government web resources and services.